FLOCK 1C-1

Last updated on Wed Feb 14 2018 16:18:38 GMT+0000 (Coordinated Universal Time)

1 40027U 14033T 18044.68621924 .00000208 00000-0 27985-4 0 9994 2 40027 97.9200 322.2470 0011775 228.4614 131.5602 14.89188037198454
UTC large
Height (km)
Speed (km/s)
/
Latitude / Longitude
Inclination (degrees)
Orbital Period (minutes)
Azimuth
Elevation
Range (km)
Doppler Factor

Next 0 passes for location: London (51.5072 / 0.1276)

Sorry there are no passes over London.